User: anonymous   Login
Location: Unspecified
(48.7670°N, 0.0000°E)
Time: 03:41:39
(UTC+00:00)
Language:

N. Korean satellite - Orbit

View from above orbital plane
View from above orbital plane
View from above satellite
View from above satellite

Ground track
Ground track

The orbit data is extracted from the following two-line orbital elements,

1 39026U 12072A   19165.73407442  .00001077  00000-0  41430-4 0  9996
2 39026  97.2104 169.0111 0039793 114.2431 246.2974 15.27796391360992
Epoch (UTC): 14 June 2019 17:37:04
Eccentricity: 0.0039793
inclination: 97.2104°
perigee height: 455 km
apogee height: 510 km
right ascension of ascending node: 169.0111°
argument of perigee: 114.2431°
revolutions per day: 15.27796391
mean anomaly at epoch: 246.2974°
orbit number at epoch: 36099

The dashed part of the orbit path shows where the satellite is in the earth's shadow,  

DLR